Location: Unspecified
(0.0000°N, 0.0000°E)
Time: 19:30:01
(UTC+00:00)

deb Delta 126 - Pass Details

Date: 21 February 2026
Orbit: 1501 x 1634 km, 102.6° (Epoch: 11 March)

Event Time Altitude Azimuth Distance (km) Brightness Sun altitude
Rises 04:14:31 0° 14° (NNE) 4,787 ? -29.2°
Reaches altitude 10° 04:17:25 10° 13° (NNE) 3,789 ? -28.5°
Maximum altitude 04:26:20 80° 287° (WNW) 1,579 ? -26.3°
Drops below altitude 10° 04:35:02 10° 200° (SSW) 3,702 ? -24.2°
Sets 04:37:50 0° 199° (SSW) 4,673 ? -23.5°
